Regional Weather Roundup
Issued by NWS

Home | Current Version | Previous Version | Text Only | Print | Product List | Glossary Off
Versions: 1 2 3 4 5 6 7 8 9 10 11 12 13 14 15 16 17 18 19 20 21 22 23 24 25 26 27 28 29 30 31 32 33 34 35 36 37 38 39 40 41 42 43 44 45 46 47 48 49 50

000
ASUS43 KLMK 220002
RWRKY
KENTUCKY REGIONAL WEATHER ROUNDUP
NATIONAL WEATHER SERVICE LOUISVILLE KY
700 PM EST SUN DEC 21 2014

NOTE "FAIR" INDICATES FEW OR NO CLOUDS BELOW 12,000 FEET
WITH NO SIGNIFICANT WEATHER AND/OR OBSTRUCTIONS TO VISIBILITY.

KYZ001>023-026-027-061>063-070>075-220100-
WESTERN AND SOUTH CENTRAL KENTUCKY

CITY           SKY/WX    TMP DP  RH WIND       PRES   REMARKS
PADUCAH        CLEAR     38  30  73 E6        30.04F WCI  33
HENDERSON      CLEAR     36  25  64 E5        30.09F WCI  32
OWENSBORO      CLEAR     40  28  62 VRB5      30.11S
HOPKINSVILLE   PTCLDY    40  29  64 E5        30.07S
BOWLING GREEN  MOCLDY    41  28  60 CALM      30.10S
GLASGOW        NOT AVBL
$$

KYZ024-025-028>034-038-045-046-053-220100-
NORTH CENTRAL KENTUCKY

CITY           SKY/WX    TMP DP  RH WIND       PRES   REMARKS
LOUISVILLE/SDF PTCLDY    38  29  70 E6        30.14R WCI  33
LOUISVILLE/LOU PTCLDY    38  28  67 E5        30.15R WCI  34
FORT KNOX      CLEAR     35  28  74 NE5       30.11R WCI  31
$$

KYZ035>037-039>044-047>052-055>060-089>105-220100-
NORTHEAST KENTUCKY

CITY           SKY/WX    TMP DP  RH WIND       PRES   REMARKS
LEXINGTON      PTCLDY    33  27  78 NE8       30.13F WCI  26
COVINGTON      PTCLDY    32  23  69 E7        30.15F WCI  26
FRANKFORT      PTCLDY    34  27  75 E7        30.13F WCI  28
$$

KYZ054-064>069-076>088-106>120-220100-
SOUTHEAST KENTUCKY

CITY           SKY/WX    TMP DP  RH WIND       PRES   REMARKS
JACKSON        CLEAR     37  26  64 NE6       30.12F WCI  32
LONDON         CLEAR     41  27  57 NE5       30.10F
SOMERSET       NOT AVBL
MIDDLESBORO    NOT AVBL
MONTICELLO     CLEAR     32  27  82 CALM      30.13R
$$



USA.gov is the U.S. government's official web portal to all federal, state and local government web resources and services.